Location: Austin
(30.3000°N, 97.7500°W)
Time: 01:09:10
(UTC-05:00)

USA 281 - Pass Details

Date: 15 May 2024
Orbit: 1074 x 1084 km, 106.0° (Epoch: 14 May)

Event Time Altitude Azimuth Distance (km) Brightness Sun altitude
Exits shadow 22:24:30 27° 78° (ENE) 1,964 4.3 -23.8°
Maximum altitude 22:25:45 28° 59° (ENE) 1,896 4.3 -24.0°
Drops below altitude 10° 22:31:11 10° 3° (N) 2,930 6.0 -24.8°
Sets 22:34:03 0° 353° (N) 3,890 6.9 -25.3°
